Regional Weather Roundup
Issued by NWS

Home | Current Version | Previous Version | Graphics & Text | Print | Product List | Glossary On
Versions: 1 2 3 4 5 6 7 8 9 10 11 12 13 14 15 16 17 18 19 20 21 22 23 24 25 26 27 28 29 30 31 32 33 34 35 36 37 38 39 40 41 42 43 44 45 46 47 48 49 50
000
ASUS43 KDTX 261510
RWRMI
MICHIGAN HOURLY REGIONAL WEATHER ROUNDUP
NATIONAL WEATHER SERVICE DETROIT/PONTIAC MI
1000 AM EST FRI DEC 26 2014

NOTE: "FAIR" INDICATES FEW OR NO CLOUDS BELOW 12,000 FEET WITH NO
SIGNIFICANT WEATHER AND/OR OBSTRUCTION TO VISIBILITY.

MIZ047>049-052>055-059>063-066>070-074>076-081>083-261600-
SOUTHEAST LOWER MICHIGAN

CITY           SKY/WX    TMP DP  RH WIND       PRES   REMARKS
ADRIAN         SUNNY     36  32  85 SW10      30.14S WCI  28
ALMA           CLOUDY    35  33  92 S7        30.08R WCI  29
ANN ARBOR      SUNNY     35  32  88 SW10      30.13R WCI  27
BAD AXE        CLOUDY    34  33  97 S6        30.09S WCI  29
CARO           CLOUDY    37  32  84 S7        30.09R WCI  31
DETROIT CITY   SUNNY     40  32  73 SW12      30.14S WCI  33
DETROIT        MOSUNNY   37  32  82 S13       30.14S WCI  29
FLINT          MOSUNNY   39  32  76 S14       30.11R WCI  31
GROSSE ILE     SUNNY     37  34  87 S12       30.14S WCI  30
HILLSDALE      SUNNY     36  34  93 S9        30.10S WCI  29
HOWELL         MOSUNNY   35  32  88 S10       30.10R WCI  28

CITY           SKY/WX    TMP DP  RH WIND       PRES   REMARKS
JACKSON        SUNNY     38  32  79 SW12G17   30.10R WCI  30
LAMBERTVILLE   SUNNY     37  32  81 S13G18    30.15S WCI  29
LANSING        MOSUNNY   38  32  79 SW14      30.09R WCI  30
LAPEER         FAIR      37  32  83 SW9       30.11R WCI  30
MASON          SUNNY     36  31  83 SW6       30.10R WCI  31
MONROE         SUNNY     37  34  87 S10       30.13S WCI  30
MT. CLEMENS    MOSUNNY   38  32  79 S12       30.11R WCI  30
PONTIAC        PTSUNNY   35  32  88 S8        30.11R WCI  29
PORT HOPE        N/A     36  31  82 SW8       30.07R WCI  30
PORT HURON     MOSUNNY   37  34  87 S13       30.14R WCI  29
TRI CITIES     CLOUDY    37  32  82 S8        30.08R WCI  31
TROY           SUNNY     37  32  82 SW8       30.14S WCI  31
SAGINAW HB     CLOUDY    36  34  93 S10       30.08R WCI  28
$$
MIZ043>046-050>051-056>058-064>065-071>073-077>080-261600-
SOUTHWEST LOWER MICHIGAN

CITY           SKY/WX    TMP DP  RH WIND       PRES   REMARKS
BATTLE CREEK   MOSUNNY   38  32  79 S15       30.09R WCI  29
BENTON HARBOR  SUNNY     38  33  82 S9        30.07R WCI  31
BIG RAPIDS     CLOUDY    35  35  99 S5        30.02R WCI  31
COLDWATER      SUNNY     37  32  84 SW8       30.11R WCI  30
FREMONT        CLOUDY    35  33  92 S5        30.03R WCI  31
HOLLAND        MOSUNNY   40  33  76 S13       30.06R WCI  32
GRAND RAPIDS   PTSUNNY   38  33  82 S8        30.06R WCI  32
IONIA          FAIR      38  33  83 SW13      30.06R WCI  30
KALAMAZOO      SUNNY     37  33  85 S10       30.09R WCI  30
LUDINGTON      SUNNY     41  37  87 S9        30.00S
MARSHALL       SUNNY     37  32  84 SW8G18    30.09R WCI  30
MOUNT PLEASANT PTSUNNY   35  34  94 S3        30.05R
MUSKEGON       CLOUDY    41  36  82 S10       30.04R
SOUTH HAVEN    MOSUNNY   40  33  76 S6        30.06S
$$
MIZ016>042-261600-
NORTHERN LOWER MICHIGAN

CITY           SKY/WX    TMP DP  RH WIND       PRES   REMARKS
ALPENA         CLOUDY    35  32  88 S10       30.06R WCI  27
BEAVER ISLAND  CLOUDY    35  35  99 CALM      29.98S FOG
BELLAIRE       CLOUDY    38  34  85 S3        30.02R
CADILLAC       CLOUDY    34  32  94 S5        29.99S WCI  30
CHARLEVOIX     CLOUDY    38  35  89 S5        30.02S WCI  34
FRANKFORT      CLOUDY    37  35  93 SE3       29.99S
GAYLORD        CLOUDY    34  33  96 S10       30.00R FOG     WCI  26
GRAYLING       CLOUDY    34  33  97 S3        30.03R FOG
HARBOR SPRINGS CLOUDY    38  34  87 CALM      30.01R
HOUGHTON LAKE  CLOUDY    33  31  92 S5        30.03R WCI  29
MANISTEE       SUNNY     34  30  86 SE3       30.00S
OSCODA         CLOUDY    36  33  88 S6        30.06S WCI  31
PELLSTON       CLOUDY    38  34  85 S7        30.00S WCI  33
ROGERS CITY    PTSUNNY   37  35  92 S12       30.04R WCI  29
TRAVERSE CITY  CLOUDY    40  35  83 VRB6      30.00R
$$
MIZ007>008-015-261600-
EASTERN UPPER MICHIGAN

CITY           SKY/WX    TMP DP  RH WIND       PRES   REMARKS
KINROSS        CLOUDY    36  34  93 CALM      29.99R
MACKINAC ISLAN CLOUDY    36  36  99 S5        30.00R FOG     WCI  32
NEWBERRY       FOG       30  30 100 N7        29.98R VSB 1/4 WCI  23
S. S. MARIE    CLOUDY    34  32  92 CALM      29.99R FOG
MUNISING         N/A     33  30  88 SW3       29.97S
$$
MIZ004>006-011>014-085-261600-
CENTRAL UPPER MICHIGAN

CITY           SKY/WX    TMP DP  RH WIND       PRES   REMARKS
MANISTIQUE     CLOUDY    32  32 100 MISG      29.98R FOG
ESCANABA       CLOUDY    34  30  86 NE5       29.96S WCI  30
MENOMINEE      CLOUDY    32  30  93 CALM      29.95S
SAWYER-GWINN   FOG       28  27  93 CALM      29.95F VSB 1/2
$$
MIZ001>003-009>011-084-261600-
WESTERN UPPER MICHIGAN

CITY           SKY/WX    TMP DP  RH WIND       PRES   REMARKS
IRON MOUNTAIN  CLOUDY    31  29  92 CALM      29.94R FOG
HOUGHTON       CLOUDY    31  29  92 NW5       29.96R WCI  26
COPPER HARBOR    N/A     34  29  82 CALM      29.98R
IRONWOOD       CLOUDY    30  28  93 N6        29.94R WCI  24
$$

ABBREVIATIONS USED IN REMARKS
   TC - TEMPERATURE IN CELSIUS
  WCI - WIND CHILL INDEX
   HX - HEAT INDEX
  VSB - VISIBILITY




USA.gov is the U.S. government's official web portal to all federal, state and local government web resources and services.